Location: Franzen
(48.6167°N, 15.3833°E)
Time: 23:07:03
(UTC+00:00)

Cosmos 2219 - Pass Details

Date: 06 August 2021
Orbit: 834 x 859 km, 71.1° (Epoch: 22 September)

Event Time Altitude Azimuth Distance (km) Brightness Sun altitude
Exits shadow 20:53:14 27° 113° (ESE) 1,591 4.2 -18.7°
Maximum altitude 20:53:48 28° 103° (ESE) 1,575 4.2 -18.8°
Drops below altitude 10° 20:58:34 10° 47° (NE) 2,504 5.8 -19.2°
Sets 21:01:21 0° 36° (NE) 3,445 6.7 -19.4°
